ARO01 LFPN-LFPN

Flight info

Callsign ARO01
Flight time 0h 29m
Altitude 3500
Route IN07L
Aircraft PA28/L-SBDGRY/S

Departure

Time 2026-04-26 03:20
Airport Toussus-le-Noble Airport (LFPN)

Arrival

Time 2026-04-26 03:49
Airport Toussus-le-Noble Airport (LFPN)
Time Latitude Longitude Altitude Speed Heading
2026-04-26 03:13 48.75034 2.11821 498 ft 0 kts 196°
2026-04-26 03:14 48.74972 2.11025 512 ft 0 kts 345°
2026-04-26 03:16 48.75061 2.11015 509 ft 33 kts 11°
2026-04-26 03:17 48.75075 2.10968 510 ft 0 kts 238°
2026-04-26 03:17 48.75088 2.10984 509 ft 2 kts 43°
2026-04-26 03:17 48.75126 2.11052 507 ft 13 kts 15°
2026-04-26 03:17 48.75139 2.11045 507 ft 0 kts 316°
2026-04-26 03:18 48.75142 2.11041 507 ft 8 kts 314°
2026-04-26 03:18 48.75145 2.11037 506 ft 0 kts 316°
2026-04-26 03:18 48.75145 2.11036 506 ft 1 kts 315°
2026-04-26 03:19 48.75185 2.10963 506 ft 5 kts 250°
2026-04-26 03:19 48.75111 2.10649 515 ft 60 kts 251°
2026-04-26 03:19 48.74974 2.09971 710 ft 69 kts 251°
2026-04-26 03:19 48.74697 2.09403 911 ft 73 kts 207°
2026-04-26 03:20 48.74514 2.09308 994 ft 73 kts 190°
2026-04-26 03:20 48.74371 2.09312 1068 ft 71 kts 167°
2026-04-26 03:20 48.74063 2.09916 1221 ft 84 kts 99°
2026-04-26 03:20 48.74039 2.10776 1294 ft 76 kts 89°
2026-04-26 03:21 48.74040 2.11290 1273 ft 76 kts 87°
2026-04-26 03:21 48.74047 2.12065 1274 ft 73 kts 85°
2026-04-26 03:21 48.74078 2.12823 1259 ft 72 kts 82°
2026-04-26 03:21 48.74154 2.13567 1248 ft 70 kts 72°
2026-04-26 03:22 48.74513 2.13985 1206 ft 70 kts
2026-04-26 03:22 48.74967 2.13834 1107 ft 64 kts 342°
2026-04-26 03:22 48.75329 2.13524 1002 ft 56 kts 331°
2026-04-26 03:22 48.75573 2.13086 901 ft 61 kts 287°
2026-04-26 03:23 48.75486 2.12438 771 ft 63 kts 253°
2026-04-26 03:23 48.75368 2.11803 609 ft 62 kts 251°
2026-04-26 03:23 48.75235 2.11209 501 ft 55 kts 252°
2026-04-26 03:23 48.75118 2.10672 517 ft 67 kts 252°
2026-04-26 03:24 48.74948 2.09951 701 ft 76 kts 250°
2026-04-26 03:24 48.74655 2.09251 905 ft 85 kts 213°
2026-04-26 03:24 48.74099 2.09237 1202 ft 79 kts 153°
2026-04-26 03:24 48.73876 2.10020 1328 ft 84 kts 86°
2026-04-26 03:25 48.73984 2.10888 1333 ft 83 kts 71°
2026-04-26 03:25 48.74153 2.11715 1366 ft 81 kts 67°
2026-04-26 03:25 48.74382 2.12506 1386 ft 80 kts 60°
2026-04-26 03:25 48.74752 2.13003 1212 ft 75 kts
2026-04-26 03:26 48.75213 2.12736 991 ft 70 kts 322°
2026-04-26 03:26 48.75378 2.12084 737 ft 65 kts 274°
2026-04-26 03:26 48.75277 2.11416 514 ft 61 kts 253°
2026-04-26 03:26 48.75164 2.10888 508 ft 59 kts 250°
2026-04-26 03:27 48.74997 2.10140 673 ft 70 kts 251°
2026-04-26 03:27 48.74744 2.09508 835 ft 82 kts 210°
2026-04-26 03:27 48.74208 2.09472 1073 ft 78 kts 148°
2026-04-26 03:27 48.74022 2.10229 1191 ft 85 kts 83°
2026-04-26 03:28 48.74091 2.11086 1208 ft 80 kts 76°
2026-04-26 03:28 48.74202 2.11924 1229 ft 85 kts 73°
2026-04-26 03:28 48.74350 2.12832 1307 ft 88 kts 75°
2026-04-26 03:28 48.74784 2.12906 1159 ft 93 kts 327°
2026-04-26 03:29 48.75286 2.12258 799 ft 94 kts 304°
2026-04-26 03:29 48.75246 2.11298 520 ft 90 kts 255°
2026-04-26 03:29 48.75319 2.10509 546 ft 80 kts 308°
2026-04-26 03:29 48.75195 2.09764 714 ft 74 kts 227°
2026-04-26 03:30 48.74729 2.09355 748 ft 92 kts 144°
2026-04-26 03:30 48.74446 2.10259 906 ft 86 kts 96°
2026-04-26 03:30 48.74683 2.11127 1019 ft 72 kts 56°
2026-04-26 03:30 48.74928 2.11842 795 ft 68 kts 67°
2026-04-26 03:31 48.75061 2.12490 1040 ft 66 kts 66°
2026-04-26 03:31 48.75303 2.13232 1140 ft 88 kts 60°
2026-04-26 03:31 48.75586 2.14127 1284 ft 96 kts 63°
2026-04-26 03:31 48.75771 2.14738 1381 ft 98 kts 62°
2026-04-26 03:32 48.76114 2.16053 1492 ft 108 kts 77°
2026-04-26 03:32 48.76172 2.16808 1597 ft 102 kts 82°
2026-04-26 03:32 48.76322 2.18128 1607 ft 93 kts 64°
2026-04-26 03:32 48.76701 2.18916 1554 ft 93 kts 43°
2026-04-26 03:33 48.77187 2.19562 1556 ft 93 kts 39°
2026-04-26 03:33 48.77692 2.20179 1591 ft 94 kts 36°
2026-04-26 03:33 48.78208 2.20793 1630 ft 94 kts 38°
2026-04-26 03:33 48.78731 2.21415 1664 ft 101 kts 34°
2026-04-26 03:34 48.79316 2.22073 1689 ft 108 kts 35°
2026-04-26 03:34 48.79948 2.22764 1661 ft 114 kts 34°
2026-04-26 03:34 48.80626 2.23414 1621 ft 117 kts 31°
2026-04-26 03:34 48.81338 2.24098 1431 ft 125 kts 30°
2026-04-26 03:35 48.82102 2.24765 1280 ft 126 kts 27°
2026-04-26 03:35 48.82931 2.25253 1048 ft 130 kts 14°
2026-04-26 03:35 48.83830 2.25337 790 ft 134 kts 350°
2026-04-26 03:35 48.84433 2.24520 932 ft 113 kts 262°
2026-04-26 03:36 48.83904 2.24171 1023 ft 103 kts 160°
2026-04-26 03:36 48.83571 2.25080 986 ft 113 kts 76°
2026-04-26 03:36 48.83969 2.26152 892 ft 121 kts 52°
2026-04-26 03:36 48.84513 2.27157 819 ft 123 kts 47°
2026-04-26 03:37 48.85117 2.28081 651 ft 129 kts 44°
2026-04-26 03:37 48.85780 2.29003 543 ft 125 kts 34°
2026-04-26 03:37 48.86309 2.29952 464 ft 113 kts 71°
2026-04-26 03:37 48.86369 2.31063 438 ft 99 kts 88°
2026-04-26 03:38 48.86598 2.31932 536 ft 90 kts 43°
2026-04-26 03:38 48.87097 2.32568 643 ft 89 kts 39°
2026-04-26 03:38 48.87564 2.33209 708 ft 88 kts 38°
2026-04-26 03:38 48.88062 2.33682 712 ft 82 kts 22°
2026-04-26 03:39 48.88609 2.33942 695 ft 85 kts 15°
2026-04-26 03:39 48.88820 2.34480 864 ft 77 kts 140°
2026-04-26 03:39 48.88449 2.34145 927 ft 76 kts 294°
2026-04-26 03:39 48.88891 2.34082 985 ft 79 kts 33°
2026-04-26 03:40 48.89413 2.34225 974 ft 76 kts 347°
2026-04-26 03:40 48.89714 2.33592 944 ft 88 kts 277°
2026-04-26 03:40 48.89698 2.32602 988 ft 97 kts 269°
2026-04-26 03:40 48.89632 2.31550 1084 ft 108 kts 261°
2026-04-26 03:41 48.89492 2.30346 1031 ft 120 kts 263°
2026-04-26 03:41 48.89399 2.29076 999 ft 107 kts 268°
2026-04-26 03:41 48.89328 2.28015 1004 ft 106 kts 250°
2026-04-26 03:41 48.89010 2.26938 881 ft 111 kts 245°
2026-04-26 03:42 48.88683 2.25922 745 ft 104 kts 246°
2026-04-26 03:42 48.88213 2.25336 820 ft 89 kts 175°
2026-04-26 03:42 48.87595 2.25151 988 ft 96 kts 209°
2026-04-26 03:42 48.86976 2.24645 1122 ft 106 kts 207°
2026-04-26 03:43 48.86297 2.24125 1221 ft 112 kts 210°
2026-04-26 03:43 48.85644 2.23461 1302 ft 113 kts 217°
2026-04-26 03:43 48.85058 2.22830 1337 ft 98 kts 214°
2026-04-26 03:43 48.84563 2.22162 1394 ft 92 kts 230°
2026-04-26 03:44 48.84125 2.21450 1524 ft 94 kts 230°
2026-04-26 03:44 48.83751 2.20559 1590 ft 108 kts 241°
2026-04-26 03:44 48.83454 2.19906 1582 ft 118 kts 236°
2026-04-26 03:44 48.83002 2.18894 1588 ft 106 kts 236°
2026-04-26 03:45 48.82481 2.17762 1602 ft 93 kts 236°
2026-04-26 03:45 48.82119 2.16944 1641 ft 94 kts 238°
2026-04-26 03:45 48.81740 2.16120 1701 ft 96 kts 236°
2026-04-26 03:45 48.81347 2.15300 1775 ft 95 kts 240°
2026-04-26 03:46 48.81101 2.14228 1517 ft 129 kts 252°
2026-04-26 03:46 48.80886 2.12873 1060 ft 127 kts 254°
2026-04-26 03:46 48.80465 2.11817 939 ft 112 kts 207°
2026-04-26 03:47 48.79158 2.12476 1295 ft 100 kts 142°
2026-04-26 03:47 48.78618 2.13162 1433 ft 105 kts 131°
2026-04-26 03:47 48.78177 2.14090 1485 ft 112 kts 120°
2026-04-26 03:47 48.77586 2.14869 1540 ft 118 kts 150°
2026-04-26 03:48 48.76768 2.15130 1545 ft 124 kts 185°
2026-04-26 03:48 48.75977 2.14488 1281 ft 138 kts 236°
2026-04-26 03:48 48.75671 2.13248 1104 ft 104 kts 254°
2026-04-26 03:48 48.75494 2.12426 881 ft 86 kts 250°
2026-04-26 03:49 48.75325 2.11626 562 ft 67 kts 252°
2026-04-26 03:49 48.75192 2.11024 505 ft 51 kts 251°
2026-04-26 03:49 48.75161 2.10858 508 ft 0 kts 49°
2026-04-26 03:49 48.75127 2.10727 512 ft 43 kts 247°
2026-04-26 03:50 48.74900 2.09862 680 ft 73 kts 208°
2026-04-26 03:50 48.74967 2.10365 598 ft 94 kts 42°
2026-04-26 03:50 48.75163 2.11253 800 ft 87 kts 79°
2026-04-26 03:50 48.75163 2.12159 1003 ft 84 kts 96°
2026-04-26 03:51 48.74768 2.12711 1165 ft 89 kts 168°
2026-04-26 03:51 48.74598 2.12880 840 ft 94 kts 345°
2026-04-26 03:51 48.74927 2.12594 788 ft 70 kts 321°
2026-04-26 03:51 48.75256 2.11797 615 ft 62 kts 295°
2026-04-26 03:52 48.75224 2.11181 500 ft 55 kts 252°
2026-04-26 03:52 48.75140 2.11162 504 ft 42 kts 62°
2026-04-26 03:52 48.75114 2.11479 495 ft 35 kts 172°
2026-04-26 03:52 48.75019 2.11848 498 ft 25 kts 39°
2026-04-26 03:53 48.75035 2.11837 497 ft 15 kts 274°